SWA3004 PAKT-KSEA

Flight info

Callsign SWA3004
Flight time 1h 32m
Altitude 37000
Route ANN3 JIZPU YJQ VIXOR MARNR8
Aircraft B738/M-SDE2E3FGHIRWXY/LB1

Departure

Time 2026-05-07 04:12
Airport Ketchikan International Airport (PAKT)

Arrival

Time 2026-05-07 05:44
Airport Seattle–Tacoma International Airport (KSEA)
Time Latitude Longitude Altitude Speed Heading
2026-05-07 03:33 55.35661 -131.71036 59 ft 0 kts 45°
2026-05-07 04:02 55.35650 -131.71056 51 ft 3 kts 45°
2026-05-07 04:02 55.35635 -131.71082 51 ft 3 kts 46°
2026-05-07 04:03 55.35620 -131.71108 50 ft 3 kts 46°
2026-05-07 04:03 55.35608 -131.71131 50 ft 3 kts 51°
2026-05-07 04:03 55.35601 -131.71151 52 ft 3 kts 117°
2026-05-07 04:03 55.35613 -131.71177 53 ft 3 kts 136°
2026-05-07 04:04 55.35628 -131.71203 50 ft 3 kts 136°
2026-05-07 04:04 55.35631 -131.71208 50 ft 0 kts 136°
2026-05-07 04:07 55.35616 -131.71176 53 ft 7 kts 127°
2026-05-07 04:07 55.35577 -131.71097 57 ft 9 kts 135°
2026-05-07 04:07 55.35528 -131.71012 53 ft 11 kts 135°
2026-05-07 04:07 55.35471 -131.70912 58 ft 13 kts 134°
2026-05-07 04:08 55.35400 -131.70789 58 ft 17 kts 136°
2026-05-07 04:08 55.35306 -131.70630 61 ft 19 kts 136°
2026-05-07 04:08 55.35209 -131.70472 83 ft 19 kts 138°
2026-05-07 04:08 55.35113 -131.70322 90 ft 18 kts 138°
2026-05-07 04:09 55.35017 -131.70167 91 ft 18 kts 137°
2026-05-07 04:09 55.34938 -131.70051 96 ft 11 kts 143°
2026-05-07 04:09 55.34890 -131.70032 98 ft 8 kts 190°
2026-05-07 04:09 55.34839 -131.70083 99 ft 10 kts 189°
2026-05-07 04:10 55.34768 -131.69998 96 ft 15 kts 133°
2026-05-07 04:10 55.34703 -131.69878 93 ft 6 kts 149°
2026-05-07 04:10 55.34692 -131.69897 94 ft 3 kts 283°
2026-05-07 04:10 55.34705 -131.69926 94 ft 0 kts 314°
2026-05-07 04:11 55.34724 -131.69960 95 ft 22 kts 314°
2026-05-07 04:11 55.35013 -131.70453 96 ft 92 kts 316°
2026-05-07 04:11 55.35620 -131.71489 99 ft 149 kts 316°
2026-05-07 04:12 55.36414 -131.72775 642 ft 151 kts 320°
2026-05-07 04:12 55.37186 -131.73949 1434 ft 146 kts 313°
2026-05-07 04:12 55.37898 -131.75355 1865 ft 164 kts 310°
2026-05-07 04:12 55.38720 -131.76911 2380 ft 182 kts 314°
2026-05-07 04:13 55.39613 -131.78499 3185 ft 181 kts 315°
2026-05-07 04:13 55.40517 -131.80071 3933 ft 186 kts 315°
2026-05-07 04:13 55.41445 -131.81676 4638 ft 188 kts 316°
2026-05-07 04:13 55.42389 -131.83287 5344 ft 192 kts 316°
2026-05-07 04:14 55.43340 -131.84910 6035 ft 191 kts 315°
2026-05-07 04:14 55.44296 -131.86541 6674 ft 192 kts 315°
2026-05-07 04:14 55.45257 -131.88183 7207 ft 194 kts 314°
2026-05-07 04:14 55.46229 -131.89854 7754 ft 196 kts 311°
2026-05-07 04:15 55.46830 -131.91927 8277 ft 197 kts 276°
2026-05-07 04:15 55.46611 -131.94357 8598 ft 214 kts 244°
2026-05-07 04:15 55.45652 -131.96468 9014 ft 226 kts 229°
2026-05-07 04:15 55.44534 -131.98466 9622 ft 231 kts 228°
2026-05-07 04:16 55.43408 -132.00464 10437 ft 228 kts 228°
2026-05-07 04:16 55.42295 -132.02445 11110 ft 229 kts 229°
2026-05-07 04:16 55.41068 -132.04407 11408 ft 254 kts 214°
2026-05-07 04:16 55.39277 -132.05274 11613 ft 287 kts 181°
2026-05-07 04:17 55.37315 -132.04176 12098 ft 309 kts 150°
2026-05-07 04:17 55.35612 -132.01803 12798 ft 316 kts 142°
2026-05-07 04:17 55.33958 -131.99212 13530 ft 321 kts 141°
2026-05-07 04:17 55.32289 -131.96575 14267 ft 325 kts 141°
2026-05-07 04:18 55.30592 -131.93937 14989 ft 327 kts 142°
2026-05-07 04:18 55.28873 -131.91315 15748 ft 329 kts 142°
2026-05-07 04:18 55.27131 -131.88698 16511 ft 331 kts 143°
2026-05-07 04:18 55.25370 -131.86081 17249 ft 333 kts 143°
2026-05-07 04:19 55.23589 -131.83451 17983 ft 336 kts 143°
2026-05-07 04:19 55.21787 -131.80806 18705 ft 340 kts 143°
2026-05-07 04:19 55.19963 -131.78132 19277 ft 344 kts 143°
2026-05-07 04:19 55.18122 -131.75436 19926 ft 347 kts 143°
2026-05-07 04:20 55.16258 -131.72719 20534 ft 350 kts 144°
2026-05-07 04:20 55.14378 -131.69971 21135 ft 354 kts 144°
2026-05-07 04:20 55.12476 -131.67193 21705 ft 359 kts 144°
2026-05-07 04:21 55.08602 -131.61554 22897 ft 366 kts 144°
2026-05-07 04:21 55.06619 -131.58762 23461 ft 367 kts 151°
2026-05-07 04:21 55.04318 -131.56998 23966 ft 360 kts 171°
2026-05-07 04:21 55.01885 -131.55976 24487 ft 360 kts 173°
2026-05-07 04:22 54.99426 -131.55025 24949 ft 364 kts 173°
2026-05-07 04:22 54.96940 -131.54081 25404 ft 367 kts 173°
2026-05-07 04:22 54.94432 -131.53121 25864 ft 371 kts 173°
2026-05-07 04:22 54.91902 -131.52140 26323 ft 374 kts 173°
2026-05-07 04:23 54.89387 -131.51154 26769 ft 377 kts 174°
2026-05-07 04:23 54.86816 -131.50140 27179 ft 381 kts 174°
2026-05-07 04:23 54.84225 -131.49114 27565 ft 383 kts 174°
2026-05-07 04:23 54.81584 -131.48065 27979 ft 385 kts 174°
2026-05-07 04:24 54.78998 -131.47039 28352 ft 388 kts 174°
2026-05-07 04:24 54.76358 -131.45993 28705 ft 391 kts 174°
2026-05-07 04:24 54.73691 -131.44939 29094 ft 395 kts 174°
2026-05-07 04:24 54.71005 -131.43877 29534 ft 397 kts 174°
2026-05-07 04:25 54.68304 -131.42811 29960 ft 399 kts 174°
2026-05-07 04:25 54.65590 -131.41742 30346 ft 402 kts 174°
2026-05-07 04:25 54.62850 -131.40664 30694 ft 405 kts 174°
2026-05-07 04:25 54.60097 -131.39581 31061 ft 406 kts 174°
2026-05-07 04:26 54.57339 -131.38498 31409 ft 407 kts 174°
2026-05-07 04:26 54.54565 -131.37411 31741 ft 409 kts 175°
2026-05-07 04:26 54.51785 -131.36325 32066 ft 411 kts 175°
2026-05-07 04:26 54.48987 -131.35232 32381 ft 413 kts 175°
2026-05-07 04:27 54.46183 -131.34137 32708 ft 414 kts 175°
2026-05-07 04:27 54.43364 -131.33034 33033 ft 417 kts 174°
2026-05-07 04:27 54.40611 -131.31210 33276 ft 437 kts 154°
2026-05-07 04:27 54.38189 -131.27907 33579 ft 449 kts 145°
2026-05-07 04:28 54.35870 -131.24303 33899 ft 451 kts 144°
2026-05-07 04:28 54.33555 -131.20644 34127 ft 454 kts 144°
2026-05-07 04:28 54.31227 -131.16964 34365 ft 456 kts 144°
2026-05-07 04:28 54.28886 -131.13289 34589 ft 458 kts 144°
2026-05-07 04:29 54.26525 -131.09617 34823 ft 459 kts 144°
2026-05-07 04:29 54.24149 -131.05952 35048 ft 461 kts 144°
2026-05-07 04:29 54.21792 -131.02335 35253 ft 462 kts 144°
2026-05-07 04:29 54.19357 -130.98616 35456 ft 464 kts 144°
2026-05-07 04:30 54.16944 -130.94940 35668 ft 466 kts 145°
2026-05-07 04:30 54.14525 -130.91261 35866 ft 467 kts 145°
2026-05-07 04:30 54.12128 -130.87608 36006 ft 470 kts 143°
2026-05-07 04:30 54.09711 -130.83828 36125 ft 473 kts 144°
2026-05-07 04:31 54.07251 -130.80094 36300 ft 474 kts 145°
2026-05-07 04:31 54.04773 -130.76382 36517 ft 474 kts 145°
2026-05-07 04:31 54.02292 -130.72676 36747 ft 475 kts 145°
2026-05-07 04:31 53.99806 -130.68962 36937 ft 476 kts 145°
2026-05-07 04:32 53.97315 -130.65236 37109 ft 478 kts 145°
2026-05-07 04:32 53.94817 -130.61497 37267 ft 480 kts 144°
2026-05-07 04:32 53.89825 -130.54018 37272 ft 475 kts 144°
2026-05-07 04:33 53.84908 -130.46664 37296 ft 470 kts 145°
2026-05-07 04:33 53.80017 -130.39382 37300 ft 467 kts 145°
2026-05-07 04:34 53.75148 -130.32163 37309 ft 464 kts 145°
2026-05-07 04:34 53.70286 -130.24977 37282 ft 466 kts 145°
2026-05-07 04:35 53.65368 -130.17735 37306 ft 474 kts 145°
2026-05-07 04:35 53.60377 -130.10410 37306 ft 476 kts 146°
2026-05-07 04:36 53.55368 -130.03102 37290 ft 477 kts 145°
2026-05-07 04:36 53.50364 -129.95772 37270 ft 477 kts 145°
2026-05-07 04:37 53.45342 -129.88453 37276 ft 477 kts 146°
2026-05-07 04:37 53.40358 -129.81222 37282 ft 477 kts 146°
2026-05-07 04:38 53.35333 -129.73948 37272 ft 478 kts 146°
2026-05-07 04:38 53.30297 -129.66700 37230 ft 477 kts 146°
2026-05-07 04:39 53.25258 -129.59471 37260 ft 477 kts 146°
2026-05-07 04:39 53.20227 -129.52256 37266 ft 477 kts 146°
2026-05-07 04:40 53.15180 -129.45070 37270 ft 476 kts 147°
2026-05-07 04:40 53.10130 -129.37922 37242 ft 477 kts 147°
2026-05-07 04:41 53.05947 -129.31963 37265 ft 477 kts 147°
2026-05-07 04:41 53.00044 -129.23599 37274 ft 478 kts 147°
2026-05-07 04:42 52.95833 -129.17663 37276 ft 479 kts 147°
2026-05-07 04:42 52.90744 -129.10524 37236 ft 480 kts 147°
2026-05-07 04:43 52.85642 -129.03357 37262 ft 482 kts 147°
2026-05-07 04:43 52.80517 -128.96188 37272 ft 483 kts 147°
2026-05-07 04:44 52.75366 -128.89002 37268 ft 487 kts 146°
2026-05-07 04:44 52.70211 -128.81725 37249 ft 487 kts 147°
2026-05-07 04:45 52.64978 -128.74622 37257 ft 487 kts 148°
2026-05-07 04:45 52.59767 -128.67495 37267 ft 488 kts 147°
2026-05-07 04:46 52.54565 -128.60338 37259 ft 487 kts 147°
2026-05-07 04:46 52.49394 -128.53088 37268 ft 487 kts 147°
2026-05-07 04:47 52.44158 -128.46072 37268 ft 485 kts 147°
2026-05-07 04:47 52.38960 -128.39036 37258 ft 484 kts 147°
2026-05-07 04:48 52.33793 -128.32007 37247 ft 482 kts 147°
2026-05-07 04:48 52.28636 -128.25031 37251 ft 480 kts 147°
2026-05-07 04:49 52.23489 -128.18100 37255 ft 479 kts 147°
2026-05-07 04:49 52.18354 -128.11197 37262 ft 478 kts 147°
2026-05-07 04:50 52.13341 -128.04031 37263 ft 480 kts 144°
2026-05-07 04:50 52.08425 -127.96646 37238 ft 481 kts 143°
2026-05-07 04:51 52.03506 -127.89293 37267 ft 481 kts 144°
2026-05-07 04:51 51.98529 -127.81982 37268 ft 483 kts 144°
2026-05-07 04:52 51.93533 -127.74681 37275 ft 484 kts 144°
2026-05-07 04:52 51.88510 -127.67387 37217 ft 485 kts 144°
2026-05-07 04:53 51.83482 -127.60065 37259 ft 488 kts 144°
2026-05-07 04:53 51.78443 -127.52807 37261 ft 490 kts 144°
2026-05-07 04:54 51.73369 -127.45474 37233 ft 487 kts 144°
2026-05-07 04:54 51.68334 -127.38193 37232 ft 486 kts 144°
2026-05-07 04:55 51.63296 -127.30981 37235 ft 484 kts 144°
2026-05-07 04:55 51.58258 -127.23778 37238 ft 487 kts 144°
2026-05-07 04:56 51.53219 -127.16429 37261 ft 489 kts 146°
2026-05-07 04:56 51.48312 -127.08807 37240 ft 491 kts 144°
2026-05-07 04:57 51.43156 -127.01760 37236 ft 488 kts 146°
2026-05-07 04:57 51.38075 -126.94513 37216 ft 489 kts 145°
2026-05-07 04:58 51.33011 -126.87216 37220 ft 491 kts 145°
2026-05-07 04:58 51.27925 -126.79906 37226 ft 492 kts 145°
2026-05-07 04:59 51.22777 -126.72766 37241 ft 489 kts 148°
2026-05-07 04:59 51.17571 -126.65752 37238 ft 489 kts 146°
2026-05-07 05:00 51.12436 -126.58592 37213 ft 491 kts 145°
2026-05-07 05:00 51.07333 -126.51482 37240 ft 490 kts 147°
2026-05-07 05:01 51.02190 -126.44341 37232 ft 492 kts 147°
2026-05-07 05:01 50.97020 -126.37232 37255 ft 491 kts 147°
2026-05-07 05:02 50.91804 -126.30266 37232 ft 489 kts 147°
2026-05-07 05:02 50.86654 -126.23231 37204 ft 490 kts 146°
2026-05-07 05:03 50.81526 -126.16175 37263 ft 486 kts 146°
2026-05-07 05:03 50.76398 -126.09163 37234 ft 487 kts 147°
2026-05-07 05:04 50.71224 -126.02277 37228 ft 484 kts 147°
2026-05-07 05:04 50.66074 -125.95283 37243 ft 493 kts 146°
2026-05-07 05:05 50.60823 -125.88274 37214 ft 498 kts 145°
2026-05-07 05:05 50.55596 -125.81114 37191 ft 499 kts 146°
2026-05-07 05:06 50.50341 -125.73926 37188 ft 500 kts 146°
2026-05-07 05:06 50.45043 -125.67066 37194 ft 489 kts 148°
2026-05-07 05:07 50.39823 -125.60211 37198 ft 492 kts 145°
2026-05-07 05:07 50.34644 -125.53208 37202 ft 491 kts 146°
2026-05-07 05:08 50.29408 -125.46374 37191 ft 489 kts 149°
2026-05-07 05:08 50.24141 -125.39642 37183 ft 491 kts 147°
2026-05-07 05:09 50.18952 -125.32693 37176 ft 493 kts 146°
2026-05-07 05:09 50.13727 -125.25716 37180 ft 494 kts 146°
2026-05-07 05:10 50.08430 -125.18866 37169 ft 495 kts 147°
2026-05-07 05:10 50.03132 -125.11987 37173 ft 496 kts 146°
2026-05-07 05:11 49.97834 -125.05095 37162 ft 497 kts 146°
2026-05-07 05:11 49.92526 -124.98219 37182 ft 497 kts 146°
2026-05-07 05:12 49.87208 -124.91358 37172 ft 497 kts 146°
2026-05-07 05:12 49.81887 -124.84517 37182 ft 497 kts 146°
2026-05-07 05:13 49.76559 -124.77682 37181 ft 497 kts 146°
2026-05-07 05:13 49.71232 -124.70874 37179 ft 497 kts 146°
2026-05-07 05:14 49.65898 -124.64075 37166 ft 497 kts 146°
2026-05-07 05:14 49.63225 -124.60676 36931 ft 499 kts 146°
2026-05-07 05:14 49.60554 -124.57283 36599 ft 494 kts 146°
2026-05-07 05:15 49.57922 -124.53939 36238 ft 489 kts 146°
2026-05-07 05:15 49.55305 -124.50621 35863 ft 485 kts 146°
2026-05-07 05:15 49.52706 -124.47333 35492 ft 482 kts 146°
2026-05-07 05:15 49.50124 -124.44072 35117 ft 479 kts 146°
2026-05-07 05:16 49.47557 -124.40837 34744 ft 476 kts 146°
2026-05-07 05:16 49.45005 -124.37624 34374 ft 473 kts 146°
2026-05-07 05:16 49.42466 -124.34432 33959 ft 470 kts 145°
2026-05-07 05:16 49.39940 -124.31261 33552 ft 467 kts 145°
2026-05-07 05:17 49.37431 -124.28115 33173 ft 464 kts 145°
2026-05-07 05:17 49.34938 -124.24992 32793 ft 461 kts 145°
2026-05-07 05:17 49.32459 -124.21892 32426 ft 458 kts 145°
2026-05-07 05:17 49.29995 -124.18814 32065 ft 455 kts 145°
2026-05-07 05:18 49.27545 -124.15758 31713 ft 453 kts 145°
2026-05-07 05:18 49.25109 -124.12724 31356 ft 450 kts 145°
2026-05-07 05:18 49.22684 -124.09708 30990 ft 448 kts 144°
2026-05-07 05:18 49.20271 -124.06712 30648 ft 445 kts 145°
2026-05-07 05:19 49.17871 -124.03737 30311 ft 443 kts 144°
2026-05-07 05:19 49.15484 -124.00776 29917 ft 441 kts 144°
2026-05-07 05:19 49.13109 -123.97834 29519 ft 438 kts 144°
2026-05-07 05:19 49.10754 -123.94921 29143 ft 435 kts 144°
2026-05-07 05:20 49.08408 -123.92027 28770 ft 432 kts 144°
2026-05-07 05:20 49.06081 -123.89159 28407 ft 428 kts 144°
2026-05-07 05:20 49.03770 -123.86314 28039 ft 425 kts 144°
2026-05-07 05:20 49.01474 -123.83490 27685 ft 422 kts 144°
2026-05-07 05:21 48.99195 -123.80689 27325 ft 420 kts 144°
2026-05-07 05:21 48.94707 -123.75187 26633 ft 414 kts 144°
2026-05-07 05:21 48.92468 -123.72447 26279 ft 412 kts 144°
2026-05-07 05:22 48.90246 -123.69731 25937 ft 410 kts 144°
2026-05-07 05:22 48.88031 -123.67026 25596 ft 407 kts 144°
2026-05-07 05:22 48.85827 -123.64339 25234 ft 405 kts 144°
2026-05-07 05:22 48.83632 -123.61666 24898 ft 404 kts 144°
2026-05-07 05:23 48.81445 -123.59003 24538 ft 403 kts 144°
2026-05-07 05:23 48.79261 -123.56350 24196 ft 401 kts 144°
2026-05-07 05:23 48.77066 -123.53760 23860 ft 399 kts 144°
2026-05-07 05:23 48.74926 -123.51083 23443 ft 400 kts 142°
2026-05-07 05:24 48.72781 -123.48432 23146 ft 394 kts 145°
2026-05-07 05:24 48.70545 -123.46074 22754 ft 390 kts 151°
2026-05-07 05:24 48.68246 -123.43946 22422 ft 386 kts 152°
2026-05-07 05:24 48.66692 -123.42552 22171 ft 384 kts 152°
2026-05-07 05:25 48.64398 -123.40499 21838 ft 381 kts 152°
2026-05-07 05:25 48.62128 -123.38447 21503 ft 379 kts 152°
2026-05-07 05:25 48.59880 -123.36392 21172 ft 376 kts 151°
2026-05-07 05:25 48.57651 -123.34339 20842 ft 374 kts 151°
2026-05-07 05:26 48.55439 -123.32292 20515 ft 372 kts 151°
2026-05-07 05:26 48.53243 -123.30256 20189 ft 369 kts 151°
2026-05-07 05:26 48.51060 -123.28232 19874 ft 367 kts 151°
2026-05-07 05:26 48.48892 -123.26224 19552 ft 365 kts 150°
2026-05-07 05:27 48.46732 -123.24225 19233 ft 363 kts 150°
2026-05-07 05:27 48.44583 -123.22239 18912 ft 361 kts 150°
2026-05-07 05:27 48.42445 -123.20265 18592 ft 360 kts 150°
2026-05-07 05:27 48.40316 -123.18302 18241 ft 358 kts 150°
2026-05-07 05:28 48.38226 -123.16376 17889 ft 356 kts 150°
2026-05-07 05:28 48.36086 -123.14405 17411 ft 356 kts 150°
2026-05-07 05:28 48.34024 -123.12507 17031 ft 348 kts 150°
2026-05-07 05:28 48.31957 -123.10605 16691 ft 339 kts 150°
2026-05-07 05:29 48.29987 -123.08794 16392 ft 336 kts 150°
2026-05-07 05:29 48.27999 -123.06970 16087 ft 334 kts 150°
2026-05-07 05:29 48.26023 -123.05159 15798 ft 332 kts 150°
2026-05-07 05:29 48.24056 -123.03357 15486 ft 330 kts 150°
2026-05-07 05:30 48.22098 -123.01566 15179 ft 329 kts 150°
2026-05-07 05:30 48.20151 -122.99787 14885 ft 327 kts 150°
2026-05-07 05:30 48.18213 -122.98019 14586 ft 326 kts 150°
2026-05-07 05:30 48.16279 -122.96255 14295 ft 324 kts 150°
2026-05-07 05:31 48.14359 -122.94505 13995 ft 323 kts 150°
2026-05-07 05:31 48.12441 -122.92759 13659 ft 322 kts 150°
2026-05-07 05:31 48.10530 -122.91020 13331 ft 321 kts 150°
2026-05-07 05:31 48.08624 -122.89286 13009 ft 319 kts 150°
2026-05-07 05:32 48.06738 -122.87573 12709 ft 317 kts 150°
2026-05-07 05:32 48.04861 -122.85863 12406 ft 315 kts 149°
2026-05-07 05:32 48.03249 -122.83670 12082 ft 316 kts 125°
2026-05-07 05:32 48.02075 -122.80912 11877 ft 313 kts 122°
2026-05-07 05:33 48.00920 -122.78163 11572 ft 312 kts 122°
2026-05-07 05:33 47.99759 -122.75444 11280 ft 311 kts 122°
2026-05-07 05:33 47.98597 -122.72724 10980 ft 310 kts 120°
2026-05-07 05:33 47.97696 -122.69813 10624 ft 310 kts 109°
2026-05-07 05:34 47.96999 -122.66770 10290 ft 310 kts 107°
2026-05-07 05:34 47.96340 -122.63764 9912 ft 306 kts 107°
2026-05-07 05:34 47.95667 -122.60784 9512 ft 300 kts 108°
2026-05-07 05:34 47.94989 -122.57884 9178 ft 293 kts 108°
2026-05-07 05:35 47.94309 -122.55033 8843 ft 291 kts 109°
2026-05-07 05:35 47.93627 -122.52198 8519 ft 289 kts 109°
2026-05-07 05:35 47.92924 -122.49401 8181 ft 287 kts 116°
2026-05-07 05:35 47.91676 -122.47145 7879 ft 281 kts 147°
2026-05-07 05:36 47.89978 -122.45887 7652 ft 268 kts 164°
2026-05-07 05:36 47.88204 -122.45094 7456 ft 266 kts 167°
2026-05-07 05:36 47.86413 -122.44342 7227 ft 268 kts 167°
2026-05-07 05:36 47.84620 -122.43582 6993 ft 267 kts 166°
2026-05-07 05:37 47.82838 -122.42810 6759 ft 266 kts 166°
2026-05-07 05:37 47.81067 -122.42033 6484 ft 265 kts 166°
2026-05-07 05:37 47.79308 -122.41257 6240 ft 263 kts 165°
2026-05-07 05:37 47.77569 -122.40488 6024 ft 259 kts 165°
2026-05-07 05:38 47.75902 -122.39578 5749 ft 253 kts 155°
2026-05-07 05:38 47.74371 -122.38394 5529 ft 243 kts 152°
2026-05-07 05:38 47.72926 -122.37237 5307 ft 230 kts 153°
2026-05-07 05:38 47.71556 -122.36159 5096 ft 217 kts 151°
2026-05-07 05:39 47.70249 -122.35140 4873 ft 206 kts 152°
2026-05-07 05:39 47.69016 -122.34188 4657 ft 196 kts 152°
2026-05-07 05:39 47.67820 -122.33274 4448 ft 191 kts 153°
2026-05-07 05:39 47.66647 -122.32383 4263 ft 187 kts 153°
2026-05-07 05:40 47.65495 -122.31506 4078 ft 185 kts 153°
2026-05-07 05:40 47.64289 -122.30972 3992 ft 181 kts 179°
2026-05-07 05:40 47.63001 -122.30996 3773 ft 189 kts 179°
2026-05-07 05:40 47.61681 -122.30986 3525 ft 190 kts 179°
2026-05-07 05:41 47.60384 -122.30988 3272 ft 188 kts 181°
2026-05-07 05:41 47.59090 -122.30997 3015 ft 184 kts 180°
2026-05-07 05:41 47.57802 -122.31008 2769 ft 181 kts 180°
2026-05-07 05:41 47.56569 -122.31018 2521 ft 177 kts 180°
2026-05-07 05:42 47.55352 -122.31029 2280 ft 173 kts 181°
2026-05-07 05:42 47.54149 -122.31039 2038 ft 168 kts 181°
2026-05-07 05:42 47.53030 -122.31048 1803 ft 157 kts 182°
2026-05-07 05:42 47.51986 -122.31056 1600 ft 149 kts 181°
2026-05-07 05:43 47.50954 -122.31065 1383 ft 149 kts 181°
2026-05-07 05:43 47.49932 -122.31080 1219 ft 144 kts 182°
2026-05-07 05:43 47.48936 -122.31084 1005 ft 142 kts 181°
2026-05-07 05:43 47.47933 -122.31082 800 ft 146 kts 182°
2026-05-07 05:44 47.46912 -122.31097 590 ft 146 kts 182°
2026-05-07 05:44 47.45912 -122.31103 419 ft 137 kts 182°
2026-05-07 05:44 47.45182 -122.31111 412 ft 73 kts 180°
2026-05-07 05:44 47.44784 -122.31111 396 ft 43 kts 176°
2026-05-07 05:45 47.44561 -122.31028 391 ft 20 kts 151°
2026-05-07 05:45 47.44459 -122.30943 390 ft 16 kts 150°
2026-05-07 05:45 47.44369 -122.30849 392 ft 16 kts 123°
2026-05-07 05:45 47.44347 -122.30696 392 ft 15 kts 99°
2026-05-07 05:46 47.44265 -122.30635 389 ft 14 kts 181°
2026-05-07 05:46 47.44167 -122.30637 386 ft 14 kts 180°
2026-05-07 05:46 47.44073 -122.30635 384 ft 12 kts 181°
2026-05-07 05:46 47.44000 -122.30608 383 ft 11 kts 127°
2026-05-07 05:47 47.43991 -122.30496 384 ft 11 kts 90°
2026-05-07 05:47 47.43993 -122.30385 385 ft 11 kts 81°
2026-05-07 05:47 47.44013 -122.30283 387 ft 10 kts 59°
2026-05-07 05:47 47.44069 -122.30241 388 ft 9 kts
2026-05-07 05:48 47.44113 -122.30259 389 ft 5 kts 296°
2026-05-07 05:48 47.44124 -122.30302 388 ft 3 kts 290°
2026-05-07 05:48 47.44126 -122.30313 388 ft 0 kts 289°